Location: Unspecified
(0.0000°N, 0.0000°E)
Time: 08:44:04
(UTC+00:00)

S-56A Canister/Altair - Visible Passes

Search period start: 03 April 2020 00:00
Search period end: 13 April 2020 00:00
Orbit: 634 x 2498 km, 38.9° (Epoch: 02 April)

Date Brightness Start Highest point End Pass type
(mag) Time Alt. Az. Time Alt. Az. Time Alt. Az.
03 Apr 10.3 05:36:59 10° NNW 05:43:37 37° NE 05:53:14 10° ESE visible
03 Apr 8.7 18:27:31 10° SW 18:38:31 80° SE 18:45:32 10° NE visible
03 Apr 10.2 20:37:22 10° W 20:42:17 17° NW 20:44:41 14° NNW visible
04 Apr 10.3 05:04:57 10° NNW 05:10:49 29° NE 05:18:59 10° ESE visible
04 Apr 10.3 20:02:52 10° W 20:09:35 24° NW 20:14:35 10° N visible
05 Apr 10.3 04:33:06 10° N 04:38:05 22° NE 04:44:38 10° E visible
05 Apr 10.1 19:28:35 10° WSW 19:36:51 31° NW 19:42:45 10° NNE visible
06 Apr 10.4 04:01:33 10° N 04:05:23 16° NE 04:10:02 10° E visible
06 Apr 10.0 18:54:23 10° WSW 19:04:05 39° NW 19:10:42 10° NNE visible
07 Apr 10.5 03:30:46 10° NNE 03:32:40 11° NE 03:34:44 10° ENE visible
07 Apr 8.7 05:29:38 10° NW 05:36:14 82° NE 05:46:32 10° SE visible
07 Apr 9.9 18:20:15 10° WSW 18:31:12 49° NW 18:38:31 10° NNE visible
08 Apr 8.7 04:57:18 10° NW 05:03:25 68° NE 05:12:50 10° SE visible
09 Apr 8.8 04:25:58 16° NNW 04:30:42 54° NE 04:39:07 10° ESE visible
09 Apr 10.9 19:25:15 10° WNW 19:29:31 14° NW 19:33:12 10° NNW visible
10 Apr 9.0 03:55:50 30° N 03:58:03 41° NE 04:05:24 10° ESE visible
10 Apr 10.8 18:49:50 10° W 18:56:36 19° NW 19:01:59 10° N visible
11 Apr 9.4 03:25:43 31° NE 03:25:43 31° NE 03:31:39 10° ESE visible
11 Apr 8.9 05:23:37 10° WNW 05:29:34 42° SW 05:38:20 10° SSE visible
11 Apr 10.8 18:14:55 10° W 18:23:38 24° NW 18:30:16 10° N visible
12 Apr 10.3 02:55:35 17° E 02:55:35 17° E 02:57:51 10° E visible
12 Apr 8.5 04:53:05 24° W 04:56:38 48° SW 05:05:00 10° SE visible
